Location: Feigenhofen
(48.4939°N, 10.7793°E)
Time: 23:03:17
(UTC+00:00)

Cosmos 2297 - Pass Details

Date: 26 May 2022
Orbit: 834 x 859 km, 71.0° (Epoch: 24 June)

Event Time Altitude Azimuth Distance (km) Brightness Sun altitude
Rises 01:25:21 0° 330° (NNW) 3,446 7.3 -14.5°
Reaches altitude 10° 01:27:49 10° 329° (NNW) 2,506 6.5 -14.2°
Maximum altitude 01:33:33 72° 246° (WSW) 907 3.7 -13.7°
Drops below altitude 10° 01:39:15 10° 163° (SSE) 2,485 5.8 -13.2°
Enters shadow 01:41:36 - 162° (SSE) 3,380 6.5 -13.0°
